sat.trackr.live / text

‹ back to catalog

STARLINK-37313

NORAD 68790 · 2026-086AA

PAYLOAD ACTIVE UNKNOWN

§ Identity

Operator
Country
US
Launch date
2026-04-19
Launch site
AFWTR
Launch vehicle
Mass (kg)
RCS (m²)

Purposes: comms

External: N2YO · Heavens-Above · Gunter

§ Orbital elements

Epoch: 2026-05-25T02:05:03.408000Z

Period
91.42 min
Inclination
97.2869°
Eccentricity
0.0000409
Mean motion
15.75212210 rev/d
Perigee alt
343.8 km
Apogee alt
344.3 km
Semi-major
6,722.2 km
B*
7.7370e-4
RAAN
181.9800°
Arg perigee
188.6623°
Mean anomaly
171.4635°
Rev number
552

§ Raw data

STARLINK-373131 68790U 26086AA  26145.08684500  .00116976  00000+0  77370-3 0  99972 68790  97.2869 181.9800 0000409 188.6623 171.4635 15.75212210  5522

JSON: /api/v1/satellites/68790 · /tle

For live sub-satellite position, see the globe view (requires WebGL).

§ Visibility from observer

Set your observer location to see the next 7 days of passes ≥ 10°. The values pass through the URL so the page stays shareable.

No JS? Fill the form by hand. The geolocation button needs JavaScript.